User: anonymous   Login
Location: Shell Point
(30.0571°N, 84.2896°W)
Time: 03:54:06
(UTC-05:00)
Language:

Meteor 2-19 Rocket - Orbit

View from above orbital plane
View from above orbital plane
View from above satellite
View from above satellite

Ground track
Ground track

The orbit data is extracted from the following two-line orbital elements,

1 20671U 90057B   17057.51260580  .00000046  00000-0  27778-4 0  9999
2 20671  82.5447 100.0987 0013859 267.6983  92.2591 13.84606323347749
Epoch (UTC): 26 February 2017 12:18:09
Eccentricity: 0.0013859
inclination: 82.5447°
perigee height: 937 km
apogee height: 958 km
right ascension of ascending node: 100.0987°
argument of perigee: 267.6983°
revolutions per day: 13.84606323
mean anomaly at epoch: 92.2591°
orbit number at epoch: 34774

The dashed part of the orbit path shows where the satellite is in the earth's shadow,  

DLR